SCP
0 -0 0 0 0 -0 0 0 0 0 0 0 0 0 0 0 1 0 0 0 0 1 -1 -2 -3 -2 -0 -0 -0 2 1 1 1 0 1 1 1 2 1 1 1 0 0 0
0 0 -0 -0 0 0 0 -0 0 0 0 0 0 -0 -0 0 0 0 0 0 1 0 -2 -1 -2 -1 -0 -0 1 2 2 1 1 2 2 2 1 1 0 0 0 0 0 0
0 0 0 -0 0 0 -0 0 0 0 0 0 0 0 0 0 0 0 0 0 0 0 -0 -1 -1 -0 -0 0 1 1 1 1 1 0 1 1 0 0 0 0 0 0 0 0
0 0 -0 -0 0 0 0 -0 -0 0 0 0 0 0 0 0 0 0 0 0 0 1 1 0 0 -0 -0 -0 0 1 1 1 1 1 0 0 0 0 0 0 0 0 0 0
0 -0 0 0 0 0 0 0 0 1 0 0 1 0 0 0 0 0 0 1 1 1 1 1 1 1 0 0 1 1 1 1 1 1 1 1 0 0 0 0 0 0 0 0
0 0 -0 0 0 0 0 0 0 0 0 1 1 0 1 1 1 1 1 1 1 1 1 1 1 1 0 0 1 0 1 1 1 1 1 0 0 0 0 0 0 0 0 0
-0 0 0 0 1 0 0 1 0 0 1 1 2 2 2 2 1 1 1 2 1 1 1 1 1 1 1 1 1 0 0 1 1 1 1 0 0 0 0 0 0 0 0 0
0 -0 -0 0 0 0 0 -0 0 1 0 0 1 1 2 1 1 1 1 2 1 2 1 0 0 1 1 1 1 1 1 2 1 1 1 1 0 0 0 0 0 0 0 0
0 0 0 -0 0 0 0 -0 0 0 0 0 1 1 2 1 1 0 0 1 1 3 1 1 1 1 2 1 1 1 2 2 2 1 1 0 0 0 0 0 0 0 0 0
0 0 0 0 -0 -0 0 0 0 0 0 0 0 0 0 1 1 0 0 0 3 3 2 3 1 1 1 1 1 2 2 3 2 1 0 0 0 0 0 0 0 0 0 0
0 0 0 0 0 0 -0 0 0 0 0 0 0 0 0 1 0 1 1 1 2 2 2 2 2 2 2 2 1 2 3 2 1 0 0 0 0 0 0 0 0 0 0 0
0 1 1 0 0 0 0 0 -0 0 0 0 0 0 1 1 1 1 1 1 1 1 1 1 2 1 1 2 2 2 1 1 0 0 0 0 0 0 0 0 0 0 0 0
0 0 0 -0 0 -0 0 0 0 0 0 0 0 0 1 1 0 0 0 1 1 1 1 1 1 1 1 1 1 1 1 1 0 0 0 0 0 0 0 0 0 0 0 0
0 0 0 0 0 -0 -0 0 0 -0 -0 0 0 1 1 1 0 1 1 1 1 1 1 1 1 1 1 1 1 0 1 0 0 0 0 0 0 0 0 0 0 0 0 0
0 0 0 0 0 -0 0 0 0 0 0 0 0 1 1 1 0 1 2 2 1 1 2 1 1 1 1 1 1 0 0 0 0 0 0 0 0 0 0 0 0 0 0 0
0 0 0 0 0 0 -0 0 0 0 0 0 1 0 0 1 2 3 1 1 1 1 1 1 1 1 1 1 0 0 0 -0 0 0 0 0 0 0 0 0 0 0 0 0
0 0 -0 0 0 0 0 0 0 0 0 1 1 2 1 1 2 1 0 0 1 0 1 1 1 0 0 0 0 0 0 0 0 0 0 0 0 0 0 0 0 0 0 0
0 0 0 0 0 0 0 -0 0 0 1 1 1 1 1 0 0 1 2 1 1 1 1 1 0 0 0 0 0 0 0 0 0 0 0 0 0 0 0 0 0 0 0 0
0 0 0 -0 -0 -0 0 0 0 0 1 1 1 1 0 -0 -0 0 0 0 0 0 0 0 0 0 0 0 0 0 0 0 0 0 0 0 0 0 0 0 -0 0 0 0
0 0 0 0 -0 -0 0 0 0 1 2 0 1 1 0 0 0 0 0 0 0 0 0 0 0 0 0 0 0 0 0 0 0 0 0 0 0 0 0 0 0 0 0 0
0 0 0 0 0 0 0 0 1 1 1 0 0 0 1 0 0 0 0 0 0 0 0 0 0 0 0 0 0 0 0 0 0 0 0 0 0 0 0 0 0 0 0 0
0 0 0 0 0 0 1 1 1 0 0 0 0 0 0 0 0 0 0 0 0 0 0 0 0 0 0 0 0 0 0 0 0 0 0 0 -0 0 -0 -0 0 0 0 0
0 0 0 0 1 1 1 1 0 0 0 -0 0 0 0 0 0 0 0 0 0 0 0 0 0 0 0 0 0 0 0 0 0 0 0 0 0 0 0 0 0 0 0 0
0 0 0 1 1 1 0 0 0 0 0 -0 -0 0 0 0 0 0 0 0 0 0 0 0 0 0 0 0 0 0 0 0 0 0 0 0 0 0 0 0 0 0 0 0
0 1 1 0 0 0 0 0 0 0 0 -0 0 0 -0 0 0 0 0 0 0 0 0 0 0 0 0 0 0 0 0 0 0 0 0 0 0 0 0 0 0 0 0 0
0 1 1 0 0 0 0 0 0 0 0 0 0 0 0 0 0 0 0 0 0 0 0 0 0 0 0 0 0 0 0 0 0 0 0 0 0 0 0 0 0 0 0 0
0 0 0 1 0 0 0 0 0 0 0 0 0 0 0 0 0 0 0 0 0 0 0 0 0 0 0 0 0 0 0 0 0 0 0 0 0 0 0 0 0 0 0 0
Wind_Speed_500mb
23 27 12 12 20 31 21 25 33 34 19 25 19 18 19 16 17 6 12 23 32 52 56 51 49 55 54 57 52 56 59 52 53 41 38 40 38 46 37 31 27 18 11 7
23 32 23 28 21 22 28 32 28 34 29 30 31 26 39 26 11 5 18 23 30 45 49 51 51 51 50 55 56 62 55 48 45 40 42 46 44 29 45 29 30 17 9 5
22 26 20 31 20 28 46 25 32 22 22 19 15 24 17 13 13 13 13 24 33 39 43 43 45 49 50 57 63 59 50 51 46 43 46 48 48 35 17 26 25 15 10 2
21 25 32 30 7 30 28 29 52 24 30 22 13 16 41 31 17 7 15 20 29 33 33 32 32 39 48 51 51 55 58 53 46 40 43 50 44 22 28 27 20 12 7 2
19 25 33 36 10 9 11 17 37 51 34 36 35 27 33 30 22 16 9 21 30 28 27 35 36 45 46 52 59 53 52 40 35 37 46 48 39 38 31 24 19 13 6 2
21 26 32 29 14 1 13 11 6 30 35 26 21 8 15 21 19 15 6 18 26 31 32 33 43 48 58 52 46 43 36 31 28 37 37 40 42 42 30 24 18 12 7 7
22 25 22 21 37 28 10 12 5 10 20 29 18 16 13 14 14 9 13 18 27 33 38 43 45 47 42 36 35 31 28 33 30 35 36 36 38 37 32 25 20 15 12 13
29 28 24 29 21 11 27 90 16 17 24 25 22 21 5 11 14 12 15 21 31 41 44 45 46 47 39 32 30 34 29 36 39 39 37 41 43 38 33 26 23 18 14 17
16 10 17 14 12 35 15 85 27 19 23 22 22 21 4 5 11 12 20 20 31 44 47 47 48 40 38 35 29 33 40 39 35 39 44 44 41 36 33 27 24 20 20 19
18 10 16 17 3 25 13 24 30 28 27 25 22 19 12 4 10 13 20 29 26 34 42 48 43 40 42 42 37 41 49 48 49 50 45 39 35 29 26 25 19 17 19 24
15 24 12 32 17 5 44 25 27 25 26 25 20 18 13 7 13 12 18 21 27 35 33 39 44 37 35 35 33 43 52 53 51 43 45 43 26 27 16 25 16 16 14 15
22 38 33 0 20 26 40 43 34 22 24 27 23 19 9 12 14 15 17 19 25 27 30 39 45 36 31 31 36 48 50 53 52 43 38 40 38 37 33 27 28 29 28 30
16 9 11 9 44 38 51 48 31 22 21 24 23 16 19 23 13 21 22 14 26 39 43 41 36 29 25 30 37 44 39 44 34 36 33 35 29 31 36 31 29 37 34 30
23 7 11 8 21 43 49 34 34 30 27 16 19 3 21 19 19 12 23 27 30 37 32 26 31 28 28 34 36 42 39 46 45 33 33 26 22 22 15 22 26 29 29 19
25 27 41 43 36 40 38 37 40 33 28 4 11 4 3 10 18 20 24 28 29 25 33 36 37 33 37 41 45 43 46 44 36 35 30 29 24 21 22 13 13 9 11 13
33 35 37 35 41 42 34 36 36 28 26 12 7 5 14 16 26 30 24 16 21 23 33 32 29 38 43 48 46 37 33 49 40 41 37 34 24 23 20 14 15 15 18 23
38 40 40 39 30 23 25 28 29 32 17 22 23 14 20 31 34 26 22 24 19 20 22 27 30 31 30 30 31 42 46 39 46 43 30 23 23 21 20 16 14 17 14 16
34 36 37 43 42 36 34 37 25 26 14 11 22 20 26 28 10 19 26 30 29 29 25 34 40 42 39 34 29 30 36 39 29 21 21 26 22 19 17 17 17 18 21 20
32 36 37 40 40 42 44 36 26 25 16 24 28 31 32 35 44 27 23 30 32 31 31 28 28 33 35 32 30 27 17 26 22 24 24 23 23 18 18 17 17 14 14 16
30 34 37 39 39 37 36 32 21 24 22 33 37 38 38 37 36 37 30 28 22 20 21 24 29 30 30 37 37 23 20 21 22 24 24 21 21 19 20 20 18 12 10 12
33 24 22 20 28 28 23 13 17 11 3 7 10 19 33 30 32 30 32 26 26 20 16 18 31 27 26 34 40 23 24 23 24 26 23 21 20 23 23 19 16 12 14 13
27 19 8 9 14 17 21 23 28 22 16 6 18 15 29 31 28 28 25 23 23 21 17 29 26 24 22 26 42 19 23 23 26 25 23 18 22 19 19 22 18 16 10 11
20 11 6 5 8 11 15 22 24 15 24 30 24 17 24 23 21 25 25 23 16 23 24 21 23 25 28 26 26 17 23 25 27 26 22 25 22 22 19 14 13 8 11 15
12 9 3 10 13 13 20 21 20 27 39 35 30 28 22 24 24 21 18 25 25 28 24 27 30 29 32 33 25 18 22 21 24 24 23 23 24 26 22 22 19 15 15 16
6 4 7 11 14 14 18 24 26 29 28 24 30 31 27 25 28 27 24 24 31 38 31 30 29 27 34 23 19 18 23 24 21 24 24 26 27 25 23 21 20 23 21 19
4 4 3 9 11 18 16 19 23 26 28 25 25 23 22 23 33 26 27 29 39 29 18 31 28 35 36 16 18 21 20 22 26 26 29 21 28 28 25 22 20 19 22 27
10 18 6 6 12 8 12 22 27 28 25 29 25 25 21 19 23 23 24 31 25 21 16 21 25 33 32 21 19 20 21 22 24 22 24 34 29 26 26 27 27 27 28 29
Wind_Direction_500mb
325 327 312 289 298 301 257 263 281 293 328 98 49 352 154 51 19 352 176 166 182 165 172 169 178 182 183 187 191 194 193 196 206 206 209 202 209 195 198 172 195 181 167 129
282 279 289 264 286 242 276 292 260 261 284 138 126 203 184 162 125 158 166 182 174 173 172 173 179 178 176 180 188 198 200 198 202 198 197 201 197 182 130 166 216 194 186 158
292 314 286 293 252 6 323 274 270 277 259 248 122 93 268 308 116 137 173 188 178 173 164 169 181 185 186 188 197 199 198 195 195 197 209 206 203 207 256 202 193 196 199 192
289 297 279 278 204 143 254 24 0 340 16 13 85 52 57 61 57 74 159 186 174 167 174 177 181 181 188 197 198 188 192 196 206 210 209 204 201 232 198 191 197 207 223 31
276 267 277 284 338 355 338 55 14 345 5 17 16 79 57 45 31 5 183 174 171 182 179 185 181 183 191 186 182 182 196 200 209 203 201 199 213 191 191 200 196 200 188 102
261 270 286 303 356 309 123 307 25 356 329 355 342 322 58 23 18 17 359 170 177 181 177 176 181 187 185 188 187 189 193 199 201 187 197 195 197 198 193 194 189 192 190 203
267 262 252 359 4 326 281 63 96 221 320 347 4 346 13 11 11 338 275 193 187 179 177 178 176 171 170 174 175 186 183 190 193 185 192 195 175 186 187 183 187 198 210 182
249 273 276 4 28 74 318 314 7 335 336 325 319 319 29 8 325 279 239 201 194 177 175 179 186 165 168 180 190 178 180 181 189 185 188 176 182 186 179 192 197 200 195 184
321 342 131 118 167 153 179 260 329 316 301 291 300 297 354 336 284 250 218 205 188 180 168 175 182 184 179 187 206 180 176 184 190 186 181 185 186 184 189 194 198 194 184 168
294 156 159 90 106 209 239 307 311 318 312 299 283 278 250 199 253 222 201 195 171 152 163 173 187 186 193 203 209 183 178 182 180 183 185 184 187 191 189 184 191 188 175 172
315 285 232 68 64 225 325 324 315 313 319 312 300 281 260 177 209 206 185 191 198 193 186 180 179 178 189 195 194 177 181 184 181 185 181 167 172 166 190 183 202 186 184 182
274 100 115 257 356 310 317 318 304 305 309 307 303 279 199 153 175 180 187 175 189 192 171 182 171 184 193 192 190 186 183 179 184 176 173 170 177 179 188 204 198 201 205 208
16 29 108 211 285 261 263 286 296 285 293 301 289 270 179 142 159 179 190 154 176 164 173 178 186 199 210 187 179 183 187 173 162 168 170 185 175 193 201 207 213 214 216 221
325 282 182 237 230 244 258 283 285 271 281 300 291 219 19 125 150 175 168 176 179 173 184 176 184 189 172 169 162 162 175 174 168 168 169 185 172 190 205 215 217 217 221 227
281 277 267 269 267 266 266 269 270 266 279 250 251 193 181 161 154 167 177 187 195 185 177 186 187 182 179 169 169 180 185 173 162 159 183 182 197 164 194 208 203 204 189 186
285 288 287 269 253 252 255 254 257 262 265 229 159 185 194 182 164 149 152 144 153 168 176 187 185 176 172 173 183 187 172 152 159 183 184 186 185 185 189 192 197 217 224 245
289 280 274 272 264 268 243 245 251 261 286 200 169 153 152 160 161 154 146 137 140 134 151 156 151 155 167 168 172 163 161 171 184 187 206 188 205 191 196 201 210 214 218 216
279 274 266 264 267 261 260 261 256 279 242 229 195 184 171 140 91 135 142 146 137 144 159 165 173 175 178 169 160 172 176 181 182 167 181 199 200 203 208 213 226 234 222 203
283 276 269 262 257 255 258 271 279 263 215 198 204 171 165 162 163 167 160 155 166 171 185 177 166 160 153 159 174 189 179 172 177 192 193 198 199 208 205 214 228 245 252 219
286 278 267 259 253 251 251 262 259 244 226 213 166 153 150 157 160 171 172 143 140 173 168 167 161 155 183 186 184 183 188 186 192 194 194 196 206 218 221 224 258 277 288 312
296 290 277 246 236 230 240 215 196 161 204 163 162 206 154 158 162 164 153 146 169 184 182 176 163 178 193 192 190 178 197 198 199 194 199 206 216 211 222 229 220 226 235 268
314 308 275 252 225 208 196 197 203 190 209 185 163 202 152 162 165 160 151 176 189 196 188 169 163 185 188 196 188 187 203 204 202 205 204 212 226 216 222 233 235 237 235 228
324 326 258 225 196 180 176 200 220 195 217 207 186 177 167 171 173 162 161 175 202 183 173 167 196 211 201 189 178 208 210 207 208 210 221 215 230 226 237 243 242 234 269 276
346 306 137 119 109 116 139 155 163 145 195 214 193 212 190 161 169 168 178 191 203 173 165 208 214 220 211 185 181 215 216 220 217 222 226 232 224 226 229 242 257 259 247 264
356 45 105 116 121 131 140 137 141 152 156 158 159 154 165 178 166 175 174 197 187 172 198 201 219 220 192 178 215 211 218 221 218 226 233 230 232 234 236 236 250 257 263 252
49 75 181 203 215 161 144 153 151 155 157 157 163 168 156 155 164 164 178 185 175 170 211 207 205 188 181 187 214 217 223 225 232 234 227 228 236 237 245 245 246 259 274 275
272 239 45 265 26 88 155 163 157 156 154 158 150 149 151 151 153 159 170 162 173 176 190 187 196 198 194 215 228 227 231 232 233 236 238 238 241 240 244 252 259 261 267 272
Wind_Speed_850mb
23 27 12 12 20 31 21 25 33 34 19 25 19 18 19 16 17 6 12 23 32 52 56 51 49 55 54 57 52 56 59 52 53 41 38 40 38 46 37 31 27 18 11 7
23 32 23 28 21 22 28 32 28 34 29 30 31 26 39 26 11 5 18 23 30 45 49 51 51 51 50 55 56 62 55 48 45 40 42 46 44 29 45 29 30 17 9 5
22 26 20 31 20 28 46 25 32 22 22 19 15 24 17 13 13 13 13 24 33 39 43 43 45 49 50 57 63 59 50 51 46 43 46 48 48 35 17 26 25 15 10 2
21 25 32 30 7 30 28 29 52 24 30 22 13 16 41 31 17 7 15 20 29 33 33 32 32 39 48 51 51 55 58 53 46 40 43 50 44 22 28 27 20 12 7 2
19 25 33 36 10 9 11 17 37 51 34 36 35 27 33 30 22 16 9 21 30 28 27 35 36 45 46 52 59 53 52 40 35 37 46 48 39 38 31 24 19 13 6 2
21 26 32 29 14 1 13 11 6 30 35 26 21 8 15 21 19 15 6 18 26 31 32 33 43 48 58 52 46 43 36 31 28 37 37 40 42 42 30 24 18 12 7 7
22 25 22 21 37 28 10 12 5 10 20 29 18 16 13 14 14 9 13 18 27 33 38 43 45 47 42 36 35 31 28 33 30 35 36 36 38 37 32 25 20 15 12 13
29 28 24 29 21 11 27 90 16 17 24 25 22 21 5 11 14 12 15 21 31 41 44 45 46 47 39 32 30 34 29 36 39 39 37 41 43 38 33 26 23 18 14 17
16 10 17 14 12 35 15 85 27 19 23 22 22 21 4 5 11 12 20 20 31 44 47 47 48 40 38 35 29 33 40 39 35 39 44 44 41 36 33 27 24 20 20 19
18 10 16 17 3 25 13 24 30 28 27 25 22 19 12 4 10 13 20 29 26 34 42 48 43 40 42 42 37 41 49 48 49 50 45 39 35 29 26 25 19 17 19 24
15 24 12 32 17 5 44 25 27 25 26 25 20 18 13 7 13 12 18 21 27 35 33 39 44 37 35 35 33 43 52 53 51 43 45 43 26 27 16 25 16 16 14 15
22 38 33 0 20 26 40 43 34 22 24 27 23 19 9 12 14 15 17 19 25 27 30 39 45 36 31 31 36 48 50 53 52 43 38 40 38 37 33 27 28 29 28 30
16 9 11 9 44 38 51 48 31 22 21 24 23 16 19 23 13 21 22 14 26 39 43 41 36 29 25 30 37 44 39 44 34 36 33 35 29 31 36 31 29 37 34 30
23 7 11 8 21 43 49 34 34 30 27 16 19 3 21 19 19 12 23 27 30 37 32 26 31 28 28 34 36 42 39 46 45 33 33 26 22 22 15 22 26 29 29 19
25 27 41 43 36 40 38 37 40 33 28 4 11 4 3 10 18 20 24 28 29 25 33 36 37 33 37 41 45 43 46 44 36 35 30 29 24 21 22 13 13 9 11 13
33 35 37 35 41 42 34 36 36 28 26 12 7 5 14 16 26 30 24 16 21 23 33 32 29 38 43 48 46 37 33 49 40 41 37 34 24 23 20 14 15 15 18 23
38 40 40 39 30 23 25 28 29 32 17 22 23 14 20 31 34 26 22 24 19 20 22 27 30 31 30 30 31 42 46 39 46 43 30 23 23 21 20 16 14 17 14 16
34 36 37 43 42 36 34 37 25 26 14 11 22 20 26 28 10 19 26 30 29 29 25 34 40 42 39 34 29 30 36 39 29 21 21 26 22 19 17 17 17 18 21 20
32 36 37 40 40 42 44 36 26 25 16 24 28 31 32 35 44 27 23 30 32 31 31 28 28 33 35 32 30 27 17 26 22 24 24 23 23 18 18 17 17 14 14 16
30 34 37 39 39 37 36 32 21 24 22 33 37 38 38 37 36 37 30 28 22 20 21 24 29 30 30 37 37 23 20 21 22 24 24 21 21 19 20 20 18 12 10 12
33 24 22 20 28 28 23 13 17 11 3 7 10 19 33 30 32 30 32 26 26 20 16 18 31 27 26 34 40 23 24 23 24 26 23 21 20 23 23 19 16 12 14 13
27 19 8 9 14 17 21 23 28 22 16 6 18 15 29 31 28 28 25 23 23 21 17 29 26 24 22 26 42 19 23 23 26 25 23 18 22 19 19 22 18 16 10 11
20 11 6 5 8 11 15 22 24 15 24 30 24 17 24 23 21 25 25 23 16 23 24 21 23 25 28 26 26 17 23 25 27 26 22 25 22 22 19 14 13 8 11 15
12 9 3 10 13 13 20 21 20 27 39 35 30 28 22 24 24 21 18 25 25 28 24 27 30 29 32 33 25 18 22 21 24 24 23 23 24 26 22 22 19 15 15 16
6 4 7 11 14 14 18 24 26 29 28 24 30 31 27 25 28 27 24 24 31 38 31 30 29 27 34 23 19 18 23 24 21 24 24 26 27 25 23 21 20 23 21 19
4 4 3 9 11 18 16 19 23 26 28 25 25 23 22 23 33 26 27 29 39 29 18 31 28 35 36 16 18 21 20 22 26 26 29 21 28 28 25 22 20 19 22 27
10 18 6 6 12 8 12 22 27 28 25 29 25 25 21 19 23 23 24 31 25 21 16 21 25 33 32 21 19 20 21 22 24 22 24 34 29 26 26 27 27 27 28 29
Wind_Direction_850mb
325 327 312 289 298 301 257 263 281 293 328 98 49 352 154 51 19 352 176 166 182 165 172 169 178 182 183 187 191 194 193 196 206 206 209 202 209 195 198 172 195 181 167 129
282 279 289 264 286 242 276 292 260 261 284 138 126 203 184 162 125 158 166 182 174 173 172 173 179 178 176 180 188 198 200 198 202 198 197 201 197 182 130 166 216 194 186 158
292 314 286 293 252 6 323 274 270 277 259 248 122 93 268 308 116 137 173 188 178 173 164 169 181 185 186 188 197 199 198 195 195 197 209 206 203 207 256 202 193 196 199 192
289 297 279 278 204 143 254 24 0 340 16 13 85 52 57 61 57 74 159 186 174 167 174 177 181 181 188 197 198 188 192 196 206 210 209 204 201 232 198 191 197 207 223 31
276 267 277 284 338 355 338 55 14 345 5 17 16 79 57 45 31 5 183 174 171 182 179 185 181 183 191 186 182 182 196 200 209 203 201 199 213 191 191 200 196 200 188 102
261 270 286 303 356 309 123 307 25 356 329 355 342 322 58 23 18 17 359 170 177 181 177 176 181 187 185 188 187 189 193 199 201 187 197 195 197 198 193 194 189 192 190 203
267 262 252 359 4 326 281 63 96 221 320 347 4 346 13 11 11 338 275 193 187 179 177 178 176 171 170 174 175 186 183 190 193 185 192 195 175 186 187 183 187 198 210 182
249 273 276 4 28 74 318 314 7 335 336 325 319 319 29 8 325 279 239 201 194 177 175 179 186 165 168 180 190 178 180 181 189 185 188 176 182 186 179 192 197 200 195 184
321 342 131 118 167 153 179 260 329 316 301 291 300 297 354 336 284 250 218 205 188 180 168 175 182 184 179 187 206 180 176 184 190 186 181 185 186 184 189 194 198 194 184 168
294 156 159 90 106 209 239 307 311 318 312 299 283 278 250 199 253 222 201 195 171 152 163 173 187 186 193 203 209 183 178 182 180 183 185 184 187 191 189 184 191 188 175 172
315 285 232 68 64 225 325 324 315 313 319 312 300 281 260 177 209 206 185 191 198 193 186 180 179 178 189 195 194 177 181 184 181 185 181 167 172 166 190 183 202 186 184 182
274 100 115 257 356 310 317 318 304 305 309 307 303 279 199 153 175 180 187 175 189 192 171 182 171 184 193 192 190 186 183 179 184 176 173 170 177 179 188 204 198 201 205 208
16 29 108 211 285 261 263 286 296 285 293 301 289 270 179 142 159 179 190 154 176 164 173 178 186 199 210 187 179 183 187 173 162 168 170 185 175 193 201 207 213 214 216 221
325 282 182 237 230 244 258 283 285 271 281 300 291 219 19 125 150 175 168 176 179 173 184 176 184 189 172 169 162 162 175 174 168 168 169 185 172 190 205 215 217 217 221 227
281 277 267 269 267 266 266 269 270 266 279 250 251 193 181 161 154 167 177 187 195 185 177 186 187 182 179 169 169 180 185 173 162 159 183 182 197 164 194 208 203 204 189 186
285 288 287 269 253 252 255 254 257 262 265 229 159 185 194 182 164 149 152 144 153 168 176 187 185 176 172 173 183 187 172 152 159 183 184 186 185 185 189 192 197 217 224 245
289 280 274 272 264 268 243 245 251 261 286 200 169 153 152 160 161 154 146 137 140 134 151 156 151 155 167 168 172 163 161 171 184 187 206 188 205 191 196 201 210 214 218 216
279 274 266 264 267 261 260 261 256 279 242 229 195 184 171 140 91 135 142 146 137 144 159 165 173 175 178 169 160 172 176 181 182 167 181 199 200 203 208 213 226 234 222 203
283 276 269 262 257 255 258 271 279 263 215 198 204 171 165 162 163 167 160 155 166 171 185 177 166 160 153 159 174 189 179 172 177 192 193 198 199 208 205 214 228 245 252 219
286 278 267 259 253 251 251 262 259 244 226 213 166 153 150 157 160 171 172 143 140 173 168 167 161 155 183 186 184 183 188 186 192 194 194 196 206 218 221 224 258 277 288 312
296 290 277 246 236 230 240 215 196 161 204 163 162 206 154 158 162 164 153 146 169 184 182 176 163 178 193 192 190 178 197 198 199 194 199 206 216 211 222 229 220 226 235 268
314 308 275 252 225 208 196 197 203 190 209 185 163 202 152 162 165 160 151 176 189 196 188 169 163 185 188 196 188 187 203 204 202 205 204 212 226 216 222 233 235 237 235 228
324 326 258 225 196 180 176 200 220 195 217 207 186 177 167 171 173 162 161 175 202 183 173 167 196 211 201 189 178 208 210 207 208 210 221 215 230 226 237 243 242 234 269 276
346 306 137 119 109 116 139 155 163 145 195 214 193 212 190 161 169 168 178 191 203 173 165 208 214 220 211 185 181 215 216 220 217 222 226 232 224 226 229 242 257 259 247 264
356 45 105 116 121 131 140 137 141 152 156 158 159 154 165 178 166 175 174 197 187 172 198 201 219 220 192 178 215 211 218 221 218 226 233 230 232 234 236 236 250 257 263 252
49 75 181 203 215 161 144 153 151 155 157 157 163 168 156 155 164 164 178 185 175 170 211 207 205 188 181 187 214 217 223 225 232 234 227 228 236 237 245 245 246 259 274 275
272 239 45 265 26 88 155 163 157 156 154 158 150 149 151 151 153 159 170 162 173 176 190 187 196 198 194 215 228 227 231 232 233 236 238 238 241 240 244 252 259 261 267 272